Vorticity
nan nan nan nan nan nan nan nan nan nan nan nan nan nan nan nan nan nan nan nan nan nan nan nan nan nan nan nan nan nan nan nan nan
nan 9 10 9 6 6 7 7 7 6 6 6 6 6 7 7 8 7 8 9 9 9 7 8 6 6 8 8 8 10 12 11 nan
nan 10 8 8 7 7 7 7 7 7 6 6 6 6 6 8 10 9 7 9 8 8 8 7 6 8 9 7 6 7 9 10 nan
nan 9 8 8 8 8 7 7 7 6 6 6 6 6 7 9 9 8 8 8 9 9 8 7 7 8 8 8 7 6 6 7 nan
nan 11 8 9 9 8 7 7 6 6 6 6 5 8 9 10 9 8 8 7 8 9 9 7 7 8 9 9 10 8 7 6 nan
nan 13 11 10 9 8 7 7 6 7 7 6 8 8 8 9 8 8 7 8 9 9 9 9 8 9 9 9 10 10 9 7 nan
nan 13 11 8 8 9 7 8 7 7 6 9 8 6 9 9 9 7 7 8 9 8 9 10 10 11 11 10 9 11 12 8 nan
nan 13 11 10 8 7 8 8 7 7 8 7 7 9 9 9 8 7 7 7 7 9 9 10 10 11 12 11 11 17 12 7 nan
nan 13 12 12 11 9 8 7 7 7 8 8 8 8 8 9 9 8 8 8 8 9 10 10 9 10 11 11 16 17 6 4 nan
nan 16 17 15 12 8 8 8 7 7 8 8 8 8 8 9 9 9 8 9 9 9 9 10 10 10 11 10 19 14 4 5 nan
nan 21 18 14 12 10 9 9 6 7 9 8 8 8 8 8 8 9 9 9 9 8 9 11 11 10 9 9 20 17 5 4 nan
nan 20 18 16 12 10 9 7 7 8 9 8 7 7 8 8 9 9 9 9 8 9 11 10 12 11 8 7 18 18 6 4 nan
nan 15 15 14 12 8 8 8 9 8 8 7 7 7 8 9 10 9 9 10 9 11 12 9 9 10 10 9 17 18 15 6 nan
nan 13 13 10 9 8 7 9 10 9 9 8 8 8 9 10 10 10 9 10 11 11 9 9 8 9 10 11 12 12 22 18 nan
nan 12 11 9 6 7 8 10 12 11 10 10 9 10 10 9 10 9 14 14 7 10 12 10 10 10 9 12 15 12 6 10 nan
nan 11 10 10 9 8 8 10 12 13 13 16 12 11 10 9 9 10 11 11 12 13 10 8 10 9 11 11 9 15 10 8 nan
nan 12 12 10 10 10 12 15 15 14 14 15 14 9 10 9 10 12 12 14 12 6 12 14 13 12 9 11 11 9 5 12 nan
nan 9 9 11 13 14 15 16 18 16 14 9 10 10 10 11 13 10 10 9 14 18 15 17 16 16 15 12 14 9 10 12 nan
nan 9 9 11 13 15 13 12 11 11 12 12 12 12 10 8 11 13 13 13 3 10 16 11 13 10 19 18 5 6 18 17 nan
nan nan nan nan nan nan nan nan nan nan nan nan nan nan nan nan nan nan nan nan nan nan nan nan nan nan nan nan nan nan nan nan nan
CAPE
1354 1245 1131 1453 2173 1987 1980 1547 863 672 1010 915 308 172 325 296 225 4 16 22 81 3 3 6 33 25 73 165 228 316 467 573 624
1414 912 1012 1435 1832 1744 1622 877 836 876 973 771 351 215 492 436 357 302 104 180 246 20 112 1 3 52 127 196 279 462 568 494 540
1505 811 928 1322 1471 1486 950 670 762 790 868 760 417 342 335 60 78 159 126 125 172 197 231 211 225 211 216 258 330 330 456 584 522
1387 831 669 1118 1416 1507 674 619 606 699 724 597 434 403 235 146 83 54 11 24 158 251 274 358 354 476 519 513 533 514 524 490 277
1151 1346 402 374 1234 1373 602 659 357 413 435 389 232 194 137 65 63 103 45 52 125 190 224 369 431 525 784 728 695 699 741 628 537
1204 1533 777 327 768 960 682 668 514 333 354 43 0 50 40 45 95 80 87 101 62 129 288 409 541 726 716 632 731 701 682 729 492
932 1320 1059 649 663 704 755 697 775 691 377 32 15 12 0 37 235 169 99 103 206 257 466 621 788 797 819 864 857 793 784 654 475
694 812 955 960 774 711 897 861 870 732 457 242 214 86 121 96 263 360 169 415 552 566 516 481 669 663 756 744 721 690 732 400 432
326 748 866 962 876 832 930 897 812 484 462 164 408 491 258 261 449 646 773 565 624 599 475 430 576 641 636 804 786 0 0 50 339
134 435 806 826 912 960 962 761 321 290 322 216 502 647 444 430 736 777 775 361 535 578 632 669 567 584 652 826 873 72 0 4 275
71 193 657 838 848 935 838 321 32 245 101 387 657 726 631 599 728 808 772 490 414 553 705 635 577 604 730 765 707 81 1 0 341
177 346 692 871 889 810 540 211 125 241 430 427 490 549 644 587 718 795 837 729 679 735 671 427 402 582 784 807 820 85 6 0 442
342 501 794 919 735 462 421 471 267 562 656 694 553 473 498 364 622 887 801 769 716 670 635 476 504 564 759 811 720 384 201 0 827
465 592 719 799 607 419 560 781 781 937 763 799 701 500 307 362 918 1295 1237 828 786 723 866 799 805 930 924 768 338 703 208 0 423
619 604 593 713 650 614 771 1106 1312 1331 1467 1738 1144 767 718 1125 1431 1309 540 1186 887 662 907 1089 948 1039 881 418 411 186 6 0 0
686 670 604 554 696 1058 1266 1268 1513 1520 1774 1672 1398 1635 1330 1336 894 866 1243 1241 1104 749 653 502 516 538 406 597 426 346 0 0 2
742 748 747 724 797 877 928 953 1197 1493 1566 1653 1275 1145 1012 1259 1145 1123 1212 964 677 578 374 645 743 580 430 333 356 381 47 0 50
364 494 526 565 612 679 774 1017 1133 1031 983 793 811 812 907 959 825 831 820 1005 407 414 0 115 115 398 316 271 218 31 0 0 0
399 625 605 647 695 679 699 591 627 715 769 819 883 824 690 525 501 435 307 356 119 0 0 0 0 0 0 0 0 0 0 0 0
221 618 673 780 730 575 587 545 629 614 678 652 697 670 530 358 78 210 486 713 412 0 0 0 0 0 0 0 0 0 0 0 0